Terminal Aerodrome Forecast
Issued by NWS Grand Forks, ND

Home | Current Version | Previous Version | Graphics & Text | Print | Product List | Glossary On
Versions: 1 2 3 4 5 6 7 8 9 10 11 12 13 14 15 16 17 18 19 20 21 22
000
FTUS43 KFGF 262200 AAA
TAFFAR
TAF AMD
KFAR 262225Z 2622/2718 VRB03KT P6SM VCSH BKN040
     FM270000 VRB03KT P6SM -SHRA BKN040
     FM270300 VRB03KT P6SM BKN080
     FM270600 16005KT P6SM SCT250=

USA.gov is the U.S. government's official web portal to all federal, state and local government web resources and services.